TimeCDT,TemperatureF,Dew PointF,Humidity,Sea Level PressureIn,VisibilityMPH,Wind Direction,Wind SpeedMPH,Gust SpeedMPH,PrecipitationIn,Events,Conditions,WindDirDegrees,DateUTC
12:16 AM,48.2,46.4,93,29.94,10.0,WNW,5.8,-,N/A,,Clear,300,2013-09-21 05:16:00
12:36 AM,48.2,46.4,93,29.94,10.0,WNW,6.9,-,N/A,,Clear,290,2013-09-21 05:36:00
12:57 AM,48.2,46.4,93,29.94,10.0,NW,5.8,-,N/A,,Clear,310,2013-09-21 05:57:00
1:17 AM,48.2,46.4,93,29.94,10.0,NW,5.8,-,N/A,,Clear,310,2013-09-21 06:17:00
1:36 AM,46.4,44.6,93,29.95,10.0,WNW,4.6,-,N/A,,Clear,300,2013-09-21 06:36:00
1:57 AM,46.4,44.6,93,29.95,10.0,WNW,4.6,-,N/A,,Clear,300,2013-09-21 06:57:00
2:17 AM,46.4,44.6,93,29.95,10.0,WNW,5.8,-,N/A,,Clear,300,2013-09-21 07:17:00
2:36 AM,46.4,44.6,93,29.94,10.0,NW,4.6,-,N/A,,Clear,310,2013-09-21 07:36:00
2:57 AM,46.4,44.6,93,29.94,10.0,WNW,5.8,-,N/A,,Clear,300,2013-09-21 07:57:00
3:17 AM,46.4,44.6,93,29.94,10.0,NW,5.8,-,N/A,,Clear,310,2013-09-21 08:17:00
3:36 AM,44.6,44.6,100,29.94,10.0,WNW,5.8,-,N/A,,Clear,300,2013-09-21 08:36:00
3:57 AM,44.6,44.6,100,29.95,10.0,NW,4.6,-,N/A,,Clear,310,2013-09-21 08:57:00
4:17 AM,44.6,44.6,100,29.95,10.0,WNW,8.1,-,N/A,,Clear,300,2013-09-21 09:17:00
4:37 AM,44.6,44.6,100,29.96,10.0,WNW,8.1,-,N/A,,Clear,300,2013-09-21 09:37:00
4:56 AM,44.6,44.6,100,29.96,10.0,WNW,5.8,-,N/A,,Clear,300,2013-09-21 09:56:00
5:17 AM,44.6,44.6,100,29.97,10.0,WNW,3.5,-,N/A,,Clear,300,2013-09-21 10:17:00
5:37 AM,44.6,42.8,93,29.97,10.0,NW,5.8,-,N/A,,Clear,310,2013-09-21 10:37:00
5:56 AM,44.6,42.8,93,29.97,10.0,NW,4.6,-,N/A,,Clear,310,2013-09-21 10:56:00
6:17 AM,42.8,42.8,100,29.97,10.0,NW,4.6,-,N/A,,Clear,310,2013-09-21 11:17:00
6:37 AM,42.8,42.8,100,29.98,10.0,NW,4.6,-,N/A,,Clear,320,2013-09-21 11:37:00
6:56 AM,42.8,42.8,100,29.98,10.0,NW,4.6,-,N/A,,Clear,320,2013-09-21 11:56:00
7:17 AM,42.8,42.8,100,29.98,10.0,NW,5.8,-,N/A,,Clear,310,2013-09-21 12:17:00
7:36 AM,42.8,42.8,100,29.98,10.0,NNW,4.6,-,N/A,,Clear,330,2013-09-21 12:36:00
7:56 AM,44.6,44.6,100,29.98,10.0,NNW,3.5,-,N/A,,Clear,340,2013-09-21 12:56:00
8:17 AM,46.4,44.6,93,29.99,10.0,NW,4.6,-,N/A,,Clear,320,2013-09-21 13:17:00
8:36 AM,46.4,46.4,100,29.99,10.0,NW,5.8,-,N/A,,Clear,310,2013-09-21 13:36:00
8:56 AM,48.2,46.4,93,30.00,10.0,NW,5.8,-,N/A,,Clear,320,2013-09-21 13:56:00
9:17 AM,51.8,46.4,82,29.99,10.0,NNW,9.2,-,N/A,,Clear,340,2013-09-21 14:17:00
9:36 AM,51.8,46.4,82,29.99,10.0,NNW,5.8,-,N/A,,Clear,340,2013-09-21 14:36:00
9:56 AM,51.8,44.6,76,30.00,10.0,NNW,9.2,-,N/A,,Clear,340,2013-09-21 14:56:00
10:17 AM,53.6,44.6,72,29.99,10.0,NW,9.2,-,N/A,,Clear,320,2013-09-21 15:17:00
10:36 AM,55.4,44.6,67,29.99,10.0,WNW,11.5,18.4,N/A,,Clear,300,2013-09-21 15:36:00
10:56 AM,55.4,44.6,67,29.99,10.0,NW,11.5,16.1,N/A,,Clear,320,2013-09-21 15:56:00
11:17 AM,55.4,44.6,67,29.99,10.0,NW,10.4,17.3,N/A,,Clear,310,2013-09-21 16:17:00
11:36 AM,57.2,46.4,67,29.99,10.0,NW,10.4,-,N/A,,Clear,310,2013-09-21 16:36:00
11:56 AM,57.2,46.4,67,29.99,10.0,NW,11.5,-,N/A,,Clear,310,2013-09-21 16:56:00
12:16 PM,57.2,46.4,67,29.99,10.0,NW,8.1,17.3,N/A,,Scattered Clouds,310,2013-09-21 17:16:00
12:37 PM,59.0,46.4,63,29.99,10.0,NW,10.4,18.4,N/A,,Scattered Clouds,320,2013-09-21 17:37:00
12:56 PM,59.0,46.4,63,29.98,10.0,NW,9.2,19.6,N/A,,Clear,320,2013-09-21 17:56:00
1:16 PM,60.8,46.4,59,29.98,10.0,West,9.2,16.1,N/A,,Clear,280,2013-09-21 18:16:00
1:37 PM,60.8,46.4,59,29.97,10.0,West,11.5,-,N/A,,Clear,280,2013-09-21 18:37:00
1:56 PM,60.8,46.4,59,29.97,10.0,NW,8.1,19.6,N/A,,Clear,320,2013-09-21 18:56:00
2:16 PM,62.6,46.4,55,29.96,10.0,NW,9.2,18.4,N/A,,Clear,320,2013-09-21 19:16:00
2:37 PM,62.6,46.4,55,29.96,10.0,WNW,6.9,-,N/A,,Clear,290,2013-09-21 19:37:00
2:56 PM,62.6,46.4,55,29.95,10.0,NW,10.4,17.3,N/A,,Clear,310,2013-09-21 19:56:00
3:16 PM,62.6,46.4,55,29.95,10.0,NNW,11.5,-,N/A,,Clear,330,2013-09-21 20:16:00
3:37 PM,62.6,46.4,55,29.94,10.0,WNW,8.1,17.3,N/A,,Clear,300,2013-09-21 20:37:00
3:56 PM,62.6,46.4,55,29.94,10.0,WNW,8.1,-,N/A,,Clear,300,2013-09-21 20:56:00
4:16 PM,62.6,46.4,55,29.93,10.0,NW,5.8,-,N/A,,Clear,310,2013-09-21 21:16:00
4:34 PM,62.6,46.4,55,29.93,10.0,North,5.8,-,N/A,,Clear,360,2013-09-21 21:34:00
4:56 PM,62.6,44.6,52,29.92,10.0,NW,3.5,-,N/A,,Clear,310,2013-09-21 21:56:00
5:16 PM,62.6,46.4,55,29.92,10.0,North,6.9,-,N/A,,Clear,350,2013-09-21 22:16:00
5:37 PM,62.6,46.4,55,29.92,10.0,North,3.5,-,N/A,,Clear,350,2013-09-21 22:37:00
5:56 PM,62.6,46.4,55,29.92,10.0,NNW,5.8,-,N/A,,Clear,340,2013-09-21 22:56:00
6:17 PM,60.8,46.4,59,29.92,10.0,NNW,5.8,-,N/A,,Clear,340,2013-09-21 23:17:00
6:36 PM,60.8,46.4,59,29.92,10.0,NW,4.6,-,N/A,,Clear,320,2013-09-21 23:36:00
6:57 PM,59.0,46.4,63,29.92,10.0,Calm,Calm,-,N/A,,Clear,0,2013-09-21 23:57:00
7:16 PM,57.2,46.4,67,29.92,10.0,Calm,Calm,-,N/A,,Clear,0,2013-09-22 00:16:00
7:22 PM,57.2,46.4,67,29.92,10.0,Calm,Calm,-,N/A,,Clear,0,2013-09-22 00:22:00
7:55 PM,53.6,48.2,82,29.92,10.0,Calm,Calm,-,N/A,,Clear,0,2013-09-22 00:55:00
8:16 PM,51.8,48.2,88,29.93,10.0,Calm,Calm,-,N/A,,Clear,0,2013-09-22 01:16:00
8:37 PM,48.2,46.4,93,29.94,10.0,ENE,4.6,-,N/A,,Clear,60,2013-09-22 01:37:00
8:57 PM,48.2,46.4,93,29.93,10.0,Calm,Calm,-,N/A,,Clear,0,2013-09-22 01:57:00
9:16 PM,48.2,46.4,93,29.94,10.0,Calm,Calm,-,N/A,,Clear,0,2013-09-22 02:16:00
9:37 PM,48.2,46.4,93,29.94,10.0,Calm,Calm,-,N/A,,Clear,0,2013-09-22 02:37:00
9:57 PM,48.2,46.4,93,29.95,10.0,Calm,Calm,-,N/A,,Clear,0,2013-09-22 02:57:00
10:16 PM,46.4,44.6,93,29.95,10.0,Calm,Calm,-,N/A,,Clear,0,2013-09-22 03:16:00
10:37 PM,46.4,46.4,100,29.95,10.0,Calm,Calm,-,N/A,,Clear,0,2013-09-22 03:37:00
10:57 PM,46.4,44.6,93,29.95,10.0,Calm,Calm,-,N/A,,Clear,0,2013-09-22 03:57:00
11:16 PM,44.6,44.6,100,29.95,10.0,Calm,Calm,-,N/A,,Clear,0,2013-09-22 04:16:00
11:37 PM,44.6,44.6,100,29.95,10.0,Calm,Calm,-,N/A,,Clear,0,2013-09-22 04:37:00
11:57 PM,46.4,44.6,93,29.95,10.0,Calm,Calm,-,N/A,,Clear,0,2013-09-22 04:57:00